Tracking 19562 objects as of 21-Mar-2019
HD Live streaming from Space Station
objects crossing your sky now

METEOR 2-21

Track METEOR 2-21 now!
10-day predictions
METEOR 2-21 is classified as:


NORAD ID: 22782
Int'l Code: 1993-055A
Perigee: 940.4 km
Apogee: 974.7 km
Inclination: 82.5 °
Period: 104.1 minutes
Semi major axis: 7328 km
RCS: 4.7976 m2 (large)
Launch date: August 31, 1993
Source: Commonwealth of Independent States (former USSR) (CIS)
Launch site: PLESETSK MISSILE AND SPACE COMPLEX (PKMTR)
aabbcc
Your satellite tracking list
Your tracking list is empty




NASA's NSSDC Master Catalog

Two Line Element Set (TLE):
1 22782U 93055A   19079.89137414 +.00000016 +00000-0 +12706-5 0  9994
2 22782 082.5481 234.3202 0023401 071.7304 080.4722 13.83816045290170
Source of the keplerian elements: AMSAT